Retour au catalogue

CZ-4B R/B

ActifSSO
NORAD 27432·ROCKET BODY·🇨🇳 China

Lancé May 15, 2002 depuis Taiyuan Satellite Launch Center

Loading…

Prochains Passages (prochaines 24 heures)

TLE

FraisSource: Space-Track

Époque: Sep 14, 2026, 03:26 UTC

1 27432U 02024C   26257.14345017  .00000019  00000-0  32529-4 0  9998
2 27432  98.8612 309.3492 0049698 206.4614 176.8985 14.14575159255887

Suivez CZ-4B R/B en temps réel avec AllMySat

Download on the App Store